Regional Weather Roundup
Issued by NWS Bismarck, ND

Home | Current Version | Previous Version | Text Only | Print | Product List | Glossary On
Versions: 1 2 3 4 5 6 7 8 9 10 11 12 13 14 15 16 17 18 19 20 21 22 23 24 25 26 27 28 29 30 31 32 33 34 35 36 37 38 39 40 41 42 43 44 45 46 47 48 49 50
000
ASUS43 KBIS 232110
RWRBIS

NWR BROADCAST TEXT
NATIONAL WEATHER SERVICE BISMARCK ND
400 PM CDT SAT JUL 23 2016

NOTE: "FAIR" INDICATES FEW OR NO CLOUDS BELOW 12,000 FEET WITH NO
SIGNIFICANT WEATHER AND/OR OBSTRUCTIONS TO VISIBILITY.


CITY           SKY/WX    TMP DP  RH WIND       PRES   REMARKS
WILLISTON      SUNNY     82  49  31 W23G32    29.82S
MINOT          SUNNY     85  54  34 W17G24    29.76S
MINOT AFB      SUNNY     80  58  47 W17G24    29.75S
BISMARCK       MOSUNNY   83  63  50 N18       29.81R
DICKINSON      SUNNY     81  46  29 W21G30    29.87S
GARRISON         N/A     79  58  48 W13G23    29.80S
HETTINGER ARPT SUNNY     87  43  21 NW23G30   29.91S
JAMESTOWN      LGT RAIN  75  69  81 S9        29.77R
BEACH          FAIR      82  43  24 W24G31    29.94S
CARRINGTON     CLOUDY    77  70  78 W12       29.78S
HAZEN          FAIR      81  54  39 W18G25    29.83S
LINTON         CLOUDY    79  72  78 NW15G21   29.83S
MANDAN         FAIR      81  59  47 NW16G24   29.83S
OAKES            N/A    N/A N/A N/A MISG        N/A
STANLEY        FAIR      79  52  38 W17G25    29.83S
WATFORD CITY     N/A    N/A N/A N/A MISG        N/A
$$

CITY           SKY/WX    TMP DP  RH WIND       PRES   REMARKS
GRAND FORKS    HVY RAIN  70  67  90 NW6       29.74R FOG
GRAND FORKS AF TSTM      69  67  93 E14       29.73F VSB 1/2
DEVILS LAKE    MOSUNNY   75  66  73 CALM      29.76F
FARGO          PTSUNNY   80  69  69 SE12      29.72S
CAVALIER       FAIR      75  66  73 E5        29.74S
GRAFTON        FAIR      73  70  88 NE10      29.74R
GWINNER        FAIR      82  73  74 SE7       29.75R
LANGDON        FAIR      79  68  69 S6        29.76F
ROLLA            N/A     75  66  73 SW9       29.76F
$$

CITY           SKY/WX    TMP DP  RH WIND       PRES   REMARKS
ABERDEEN       PTSUNNY   90  73  57 CALM      29.72F HX  98
MOBRIDGE       PTSUNNY   87  66  49 NW21G26   29.79R
BUFFALO          N/A     88  36  15 NW21G32   29.88S
RAPID CITY     SUNNY     90  43  19 N23G31    29.94R
GLASGOW        SUNNY     80  50  34 NW31G38   29.89S
SIDNEY         SUNNY     84  50  30 W21G30    29.84S
WOLF POINT     MOSUNNY   82  50  32 NW25G36   29.88R
GLENDIVE       SUNNY     83  48  29 W26G32    29.90S
MILES CITY     MOSUNNY   87  41  19 W23G30    29.94S
BAKER          SUNNY     83  41  22 NW23G33   29.95S
$$

CITY           SKY/WX    TMP DP  RH WIND       PRES   REMARKS
BILLINGS       MOSUNNY   85  32  15 N13G22    30.02F
GREAT FALLS    PTSUNNY   79  38  22 W9G21     30.06F
REGINA         LGT RAIN  66  61  82 W24G31    29.74S
ESTEVAN        MOSUNNY   75  54  46 W22G32    29.76R
$$





USA.gov is the U.S. government's official web portal to all federal, state and local government web resources and services.